[[{"header":{"parameterUnit":"m.s-1","parameterCategory":1,"la1":30.2991,"la2":30.254,"lo1":-89.0895,"lo2":-89.0444,"dy":0.0017,"dx":0.0017,"nx":28,"ny":28,"refTime":"2024-04-30T21:00:00:Z","depth":0,"parameterNumber":2,"parameterNumberName":"U-component_of_WINDS"},"data":[0,0,0,0,0,0,0,0,0,0,0,0,0,0,0,0,0,0,0,0,0,0,0,0,0,0,0,0,0,0,0,0,0,0,0,0,0,0,0,0,0,0,0,0,0,0,0,0,0,0,0,0,0,0,0,0,0,0,-2.5866,-2.5866,0,-2.5833,-2.5833,-2.5833,-2.5767,-2.5766,-2.5765,-2.5763,-2.5731,-2.5731,-2.5732,0,0,0,0,0,0,0,0,0,0,0,0,0,-2.5874,-2.5874,-2.5866,-2.5866,-2.5865,-2.5833,-2.5833,-2.5832,-2.5767,-2.5766,-2.5764,-2.5763,-2.5731,-2.5731,-2.5732,0,0,0,0,0,0,0,0,0,0,0,0,0,-2.5859,-2.5874,-2.5866,-2.5829,-2.5825,-2.5833,-2.5833,-2.5832,-2.5768,-2.5766,-2.5764,-2.5762,-2.5731,-2.5731,-2.5732,-2.5774,0,0,-2.5733,-2.5733,0,0,0,0,0,0,0,0,-2.586,-2.5859,-2.5835,-2.5832,-2.5827,-2.5802,-2.5824,-2.5813,-2.5768,-2.579,-2.5763,-2.5761,-2.5756,-2.5755,-2.5753,-2.5772,-2.5771,-2.5733,-2.5734,-2.5734,-2.5734,0,0,0,0,0,0,0,-2.5861,-2.586,-2.5853,-2.5835,-2.583,-2.5815,-2.581,-2.5821,-2.5784,-2.5788,-2.5783,-2.578,-2.5754,-2.5752,-2.5751,-2.577,-2.5733,-2.5734,-2.5734,-2.5734,-2.5823,-2.5825,0,0,0,0,0,0,-2.5867,-2.5861,-2.5854,-2.5852,-2.5839,-2.5816,-2.5811,-2.5812,-2.5784,-2.5778,-2.5781,-2.5777,-2.5752,-2.5751,-2.575,-2.5797,-2.5734,-2.5734,-2.5735,-2.5821,-2.5824,-2.5826,0,0,0,0,0,0,-2.5868,-2.5867,-2.5855,-2.5855,-2.5853,-2.5818,-2.582,-2.5813,-2.5811,-2.5779,-2.5773,-2.5787,-2.5751,-2.5749,-2.5768,-2.5795,-2.5734,-2.5735,-2.5819,-2.5822,-2.5825,-2.5892,0,0,0,0,0,0,-2.5868,-2.5868,-2.5883,-2.5856,-2.5853,-2.5874,-2.5821,-2.5814,-2.5812,-2.5806,-2.5782,-2.5777,-2.5749,-2.5768,-2.5769,-2.5795,-2.5735,-2.5816,-2.582,-2.5824,-2.5888,-2.5897,-2.5906,0,0,0,0,0,-2.5869,-2.5903,-2.5884,-2.5884,-2.5871,-2.5876,-2.5874,-2.5841,-2.5814,-2.583,-2.5809,-2.5777,-2.5793,-2.577,-2.5771,-2.5798,-2.5814,-2.5819,-2.5824,-2.5884,-2.5896,-2.5906,0,0,0,0,0,0,-2.5934,-2.5899,-2.5877,-2.5904,-2.5893,-2.5865,-2.5882,-2.5855,-2.5852,-2.5846,-2.5806,-2.5802,-2.5826,-2.5814,-2.579,-2.5837,-2.5798,-2.5803,-2.5844,-2.5855,-2.5864,-2.5866,-2.5736,0,0,0,0,0,-2.5952,-2.5958,-2.5927,-2.5954,-2.595,-2.5918,-2.5918,-2.5894,-2.5882,-2.5877,-2.5858,-2.5847,-2.5849,-2.5852,-2.5852,-2.5886,-2.588,-2.5905,-2.5914,-2.5922,-2.5926,-2.5944,-2.5954,-2.5841,-2.5841,-2.5841,0,0,-2.5988,-2.597,-2.5976,-2.5967,-2.5956,-2.5963,-2.5914,-2.5924,-2.593,-2.5878,-2.5895,-2.5881,-2.5867,-2.5893,-2.5904,-2.5884,-2.5956,-2.5928,-2.5934,-2.5934,-2.5949,-2.596,-2.597,-2.5844,-2.5844,-2.5843,0,0,-2.6058,-2.6045,-2.6066,-2.6056,-2.604,-2.6018,-2.6023,-2.5999,-2.5988,-2.6004,-2.5965,-2.5972,-2.5977,-2.5968,-2.5964,-2.6033,-2.6003,-2.6034,-2.6082,-2.6099,-2.6108,-2.6116,-2.614,-2.6149,-2.6039,-2.6039,-2.604,0,-2.6105,-2.6115,-2.608,-2.6093,-2.609,-2.6044,-2.6066,-2.6058,-2.6043,-2.6042,-2.602,-2.6025,-2.6013,-2.6037,-2.6054,-2.6052,-2.6057,-2.6036,-2.611,-2.6117,-2.6124,-2.6146,-2.6156,-2.6043,-2.6043,-2.6042,-2.6042,0,-2.6174,-2.6182,-2.6201,-2.6187,-2.6186,-2.6204,-2.6172,-2.6176,-2.6153,-2.6134,-2.6151,-2.6134,-2.6131,-2.6135,-2.6112,-2.6156,-2.6144,-2.6117,-2.6077,-2.6139,-2.6159,-2.6168,-2.6049,-2.6047,-2.6046,-2.6045,0,0,-2.6283,-2.6251,-2.6258,-2.6251,-2.6231,-2.6236,-2.6252,-2.6248,-2.6252,-2.6244,-2.6256,-2.6262,-2.6237,-2.6233,-2.6209,-2.6224,-2.628,-2.6194,-2.6194,-2.6211,-2.6327,-2.6348,-2.6359,-2.6261,-2.6262,-2.6263,-2.6329,0,-2.6348,-2.6371,-2.6341,-2.6372,-2.6378,-2.6336,-2.6349,-2.6339,-2.6322,-2.6326,-2.6308,-2.6312,-2.6278,-2.6276,-2.6289,-2.627,-2.6303,-2.6265,-2.6272,-2.6272,-2.6275,-2.6369,-2.6391,-2.6453,-2.6336,-2.6338,-2.6339,0,-2.6426,-2.6421,-2.6452,-2.643,-2.6432,-2.6445,-2.6439,-2.6444,-2.6431,-2.6418,-2.6414,-2.6386,-2.64,-2.6363,-2.6382,-2.6358,-2.6359,-2.635,-2.6352,-2.635,-2.6309,-2.637,-2.6472,-2.6481,-2.6351,-2.635,-2.6349,0,-2.6501,-2.6503,-2.6522,-2.6518,-2.6493,-2.6503,-2.6493,-2.6479,-2.6479,-2.6475,-2.6474,-2.6472,-2.6471,-2.647,-2.6442,-2.6418,-2.6466,-2.6425,-2.6455,-2.6456,-2.6466,-2.6466,-2.6569,-2.6469,-2.6468,-2.6468,-2.6468,0,-2.6576,-2.6597,-2.6556,-2.6567,-2.659,-2.6556,-2.6579,-2.6565,-2.6553,-2.6561,-2.6525,-2.6534,-2.6497,-2.6503,-2.6481,-2.6501,-2.6501,-2.6491,-2.6485,-2.6493,-2.6495,-2.6493,-2.6488,-2.6471,-2.647,-2.647,-2.6469,0,-2.6664,-2.6637,-2.6655,-2.663,-2.6625,-2.6642,-2.6621,-2.6631,-2.6613,-2.6624,-2.6625,-2.6596,-2.6601,-2.6574,-2.6573,-2.6559,-2.6589,-2.6576,-2.6593,-2.6588,-2.6619,-2.6617,-2.6725,-2.6737,-2.663,-2.6631,-2.6632,0,-2.6713,-2.6728,-2.6705,-2.6708,-2.67,-2.6705,-2.6705,-2.6673,-2.6674,-2.6662,-2.6674,-2.6675,-2.6675,-2.6684,-2.6664,-2.6664,-2.665,-2.6688,-2.6649,-2.6658,-2.665,-2.6649,-2.665,-2.6695,-2.6697,-2.6698,-2.6699,0,-2.6803,-2.6789,-2.679,-2.6787,-2.6788,-2.6784,-2.6777,-2.6782,-2.6747,-2.6751,-2.6755,-2.6755,-2.6755,-2.6757,-2.6753,-2.6743,-2.6716,-2.6711,-2.6718,-2.6727,-2.6736,-2.6731,-2.6614,-2.6709,-2.6708,-2.6707,-2.6706,-2.6706,-2.6872,-2.6883,-2.6869,-2.6872,-2.6864,-2.6859,-2.6867,-2.685,-2.6853,-2.685,-2.6831,-2.6839,-2.6827,-2.6819,-2.6812,-2.6818,-2.68,-2.681,-2.6812,-2.6815,-2.682,-2.6736,-2.6818,-2.6817,-2.6817,-2.6817,-2.6816,0,-2.6959,-2.6948,-2.6951,-2.6943,-2.6946,-2.692,-2.6912,-2.6916,-2.6923,-2.6914,-2.6914,-2.692,-2.6922,-2.6902,-2.6902,-2.6911,-2.6898,-2.6912,-2.691,-2.6909,-2.6837,-2.6831,-2.6922,-2.6922,-2.6922,-2.6922,-2.6922,-2.6922,-2.7005,-2.7023,-2.7008,-2.7022,-2.7011,-2.7018,-2.7016,-2.7012,-2.7004,-2.7012,-2.7013,-2.7,-2.6987,-2.6986,-2.6988,-2.6982,-2.6983,-2.7001,-2.6991,-2.6924,-2.6914,-2.6904,-2.6898,-2.7002,-2.7002,-2.7062,-2.7063,-2.7063]},{"header":{"parameterUnit":"m.s-1","parameterCategory":1,"la1":30.2991,"la2":30.254,"lo1":-89.0895,"lo2":-89.0444,"dy":0.0017,"dx":0.0017,"nx":28,"ny":28,"refTime":"2024-04-30T21:00:00:Z","depth":0,"parameterNumber":3,"parameterNumberName":"V-component_of_WINDS"},"data":[0,0,0,0,0,0,0,0,0,0,0,0,0,0,0,0,0,0,0,0,0,0,0,0,0,0,0,0,0,0,0,0,0,0,0,0,0,0,0,0,0,0,0,0,0,0,0,0,0,0,0,0,0,0,0,0,0,0,2.91,2.91,0,2.9074,2.9073,2.9073,2.9034,2.9033,2.9032,2.9032,2.9004,2.9004,2.9003,0,0,0,0,0,0,0,0,0,0,0,0,0,2.9116,2.9116,2.91,2.9099,2.9099,2.9074,2.9073,2.9073,2.9034,2.9033,2.9032,2.9032,2.9004,2.9004,2.9003,0,0,0,0,0,0,0,0,0,0,0,0,0,2.9101,2.9116,2.91,2.9077,2.9074,2.9074,2.9073,2.9073,2.9034,2.9033,2.9032,2.9031,2.9004,2.9004,2.9003,2.9023,0,0,2.9003,2.9003,0,0,0,0,0,0,0,0,2.9102,2.9101,2.908,2.9078,2.9076,2.9056,2.9069,2.9056,2.9034,2.9049,2.9032,2.9031,2.9022,2.902,2.9017,2.9022,2.902,2.9003,2.9003,2.9003,2.9003,0,0,0,0,0,0,0,2.9103,2.9102,2.9089,2.908,2.9077,2.9068,2.9064,2.9066,2.9042,2.9048,2.9045,2.9043,2.902,2.9018,2.9016,2.902,2.9003,2.9003,2.9003,2.9003,2.904,2.9041,0,0,0,0,0,0,2.9108,2.9103,2.909,2.9089,2.9087,2.9068,2.9064,2.9063,2.9041,2.9037,2.9043,2.9041,2.9018,2.9017,2.9015,2.9037,2.9003,2.9003,2.9002,2.9038,2.904,2.9041,0,0,0,0,0,0,2.9108,2.9107,2.9091,2.9095,2.9092,2.9069,2.9068,2.9063,2.9061,2.9038,2.9033,2.9045,2.9018,2.9015,2.9022,2.9035,2.9002,2.9002,2.9037,2.9039,2.904,2.908,0,0,0,0,0,0,2.9109,2.9107,2.9115,2.9095,2.9092,2.9098,2.9069,2.9064,2.9061,2.9057,2.9039,2.9034,2.9017,2.9022,2.9021,2.9034,2.9002,2.9036,2.9038,2.904,2.9078,2.9083,2.9088,0,0,0,0,0,2.911,2.9126,2.9115,2.9114,2.9101,2.9099,2.9097,2.9076,2.9062,2.9069,2.9055,2.9035,2.9034,2.9023,2.9022,2.9035,2.9035,2.9037,2.904,2.9075,2.9082,2.9088,0,0,0,0,0,0,2.9147,2.9123,2.9111,2.9122,2.9113,2.9092,2.91,2.9084,2.9079,2.9075,2.905,2.9046,2.9055,2.9046,2.9034,2.9053,2.9032,2.9034,2.9059,2.9065,2.907,2.9072,2.9002,0,0,0,0,0,2.9157,2.9158,2.9137,2.9149,2.9145,2.9124,2.9122,2.9107,2.9097,2.9093,2.9079,2.9069,2.9067,2.9065,2.9062,2.9076,2.9072,2.9085,2.909,2.9094,2.9097,2.9104,2.911,2.9049,2.9049,2.9049,0,0,2.9177,2.9164,2.9166,2.9156,2.9147,2.9149,2.9121,2.9123,2.9124,2.9093,2.9098,2.9088,2.9075,2.9086,2.909,2.9078,2.9113,2.9098,2.9101,2.9101,2.9107,2.9113,2.9118,2.9051,2.905,2.905,0,0,2.9213,2.9204,2.9213,2.9205,2.9192,2.9178,2.9181,2.9163,2.9155,2.916,2.9137,2.9138,2.9134,2.9126,2.9122,2.9157,2.9139,2.9157,2.9183,2.9191,2.9195,2.92,2.9212,2.9217,2.9159,2.9159,2.9159,0,2.9239,2.9241,2.9219,2.9224,2.922,2.9193,2.9202,2.9195,2.9182,2.9181,2.9168,2.9164,2.9153,2.9162,2.9171,2.9168,2.917,2.9158,2.9197,2.92,2.9204,2.9216,2.9221,2.9162,2.9161,2.9161,2.9161,0,2.9273,2.9275,2.9284,2.9272,2.927,2.9277,2.9257,2.9257,2.9243,2.923,2.9236,2.9222,2.9216,2.9217,2.9203,2.9224,2.9217,2.9201,2.9179,2.9212,2.9223,2.9227,2.9165,2.9164,2.9163,2.9163,0,0,2.9332,2.931,2.9313,2.9308,2.9293,2.9294,2.9299,2.9294,2.9295,2.9287,2.9291,2.9289,2.9275,2.927,2.9255,2.9261,2.9291,2.9244,2.9244,2.9253,2.9314,2.9326,2.9331,2.9279,2.928,2.928,2.9315,0,2.9365,2.9374,2.9355,2.9368,2.937,2.9345,2.935,2.9341,2.933,2.9329,2.9317,2.9316,2.9297,2.9294,2.9299,2.9286,2.9302,2.9283,2.9283,2.9283,2.9286,2.9337,2.9349,2.9382,2.9319,2.9319,2.932,0,2.9405,2.94,2.9414,2.9398,2.9398,2.9403,2.9397,2.9397,2.9387,2.9378,2.9374,2.9356,2.9361,2.934,2.9347,2.9334,2.9333,2.9327,2.9327,2.9326,2.9303,2.9337,2.9392,2.9397,2.9326,2.9326,2.9325,0,2.9446,2.9443,2.9451,2.9447,2.943,2.9434,2.9427,2.9416,2.9414,2.9409,2.9407,2.9403,2.94,2.9397,2.9379,2.9365,2.9388,2.9365,2.938,2.9381,2.9385,2.9385,2.9441,2.9386,2.9386,2.9385,2.9385,0,2.9485,2.9494,2.9469,2.9474,2.9484,2.9463,2.9473,2.9463,2.9454,2.9457,2.9435,2.9438,2.9414,2.9414,2.94,2.9408,2.9407,2.94,2.9396,2.9402,2.9402,2.94,2.9397,2.9387,2.9386,2.9386,2.9386,0,2.9533,2.9516,2.9523,2.9506,2.9502,2.951,2.9496,2.95,2.9488,2.9491,2.9491,2.9472,2.9471,2.9453,2.9449,2.9439,2.9453,2.9445,2.9456,2.9453,2.947,2.9469,2.9526,2.9532,2.9473,2.9473,2.9474,0,2.9558,2.9565,2.9549,2.955,2.9544,2.9545,2.9543,2.9523,2.9522,2.9512,2.9517,2.9515,2.9512,2.9512,2.9498,2.9494,2.9486,2.9506,2.9485,2.9491,2.9486,2.9486,2.9487,2.9511,2.9511,2.9512,2.9512,0,2.9606,2.9598,2.9596,2.9592,2.9591,2.9587,2.9581,2.9583,2.9561,2.9561,2.956,2.9558,2.9554,2.9552,2.9547,2.9539,2.9522,2.9519,2.9523,2.9528,2.9535,2.9532,2.9468,2.9518,2.9517,2.9517,2.9517,2.9516,2.9643,2.9648,2.9638,2.9637,2.9631,2.9627,2.963,2.9619,2.9618,2.9613,2.9601,2.9603,2.9594,2.9584,2.9579,2.9579,2.9569,2.9574,2.9575,2.9577,2.958,2.9535,2.9578,2.9578,2.9578,2.9578,2.9578,0,2.9689,2.9682,2.9682,2.9675,2.9675,2.9659,2.9653,2.9653,2.9655,2.9648,2.9646,2.9646,2.9644,2.963,2.9627,2.9631,2.9623,2.9631,2.963,2.9628,2.9589,2.9587,2.9637,2.9637,2.9637,2.9637,2.9637,2.9637,2.9713,2.9721,2.9712,2.9717,2.9709,2.9711,2.9708,2.9704,2.9699,2.9699,2.9698,2.9689,2.968,2.9676,2.9674,2.967,2.967,2.968,2.9673,2.9637,2.9631,2.9626,2.9623,2.968,2.968,2.9713,2.9713,2.9713]}]]